Dewpoint
53 55 55 56 56 57 57 58 58 58 58 58 57 57 57 56 57 57 56 56 56 55 55 56 55 55 55 55 56 56 57 57 58 59 59 59 59 59 58 58 57 57 57 57 57 57 56 56 56 55 56 55 53 52 50 49 48 48 46 45 45 43 44 41 40 36 24 27 29 27 25 25 26 26 26 26 26 26 27 25 27 24 23 22 24
52 53 53 54 55 56 56 56 57 57 57 58 57 58 58 58 57 56 56 57 56 55 55 56 55 56 56 56 56 57 58 58 59 59 59 58 58 59 58 58 57 57 57 57 56 56 56 55 55 55 52 52 48 46 44 42 42 44 44 43 44 41 42 41 39 37 26 24 26 25 24 25 24 26 24 23 24 25 23 23 24 24 23 22 21
48 50 51 52 53 54 54 55 55 55 56 57 57 57 57 57 56 56 56 55 53 55 55 55 55 55 55 56 57 57 58 58 58 58 58 58 58 57 58 57 57 56 56 56 56 55 55 54 51 50 48 47 46 45 43 44 44 44 42 41 43 42 38 38 36 33 28 24 25 24 24 24 24 24 23 22 23 23 22 22 23 25 24 22 22
44 46 49 50 51 51 52 52 51 52 54 55 55 56 56 55 54 55 55 54 53 53 54 55 54 54 54 55 55 56 56 57 57 58 58 57 57 58 57 56 56 56 55 54 53 51 51 51 51 50 47 48 46 42 40 41 40 40 40 38 37 38 33 31 32 30 26 24 24 23 24 23 24 24 24 23 22 23 21 22 23 24 24 24 22
42 44 45 47 47 48 49 50 50 51 52 53 53 53 53 53 52 53 53 53 53 52 52 52 53 54 55 55 55 55 56 56 57 57 57 57 57 57 57 56 55 54 55 55 51 53 51 51 48 42 41 41 38 39 38 39 40 41 40 38 37 36 32 32 28 26 25 25 25 24 23 23 25 24 23 21 22 22 23 22 22 22 22 22 24
36 40 41 44 46 46 48 47 49 50 51 51 51 50 50 49 51 51 52 54 52 52 52 52 53 54 54 55 55 55 55 55 56 56 56 56 56 55 54 54 54 54 54 54 54 52 51 50 47 43 42 43 41 40 39 40 39 38 38 38 36 35 33 28 25 25 25 25 24 23 22 21 21 21 22 21 20 20 21 22 22 22 22 22 22
35 36 37 39 43 45 45 46 47 48 48 48 47 47 48 47 48 50 49 51 52 52 51 52 52 53 54 54 55 55 55 55 55 55 55 55 56 55 55 54 53 52 52 53 51 48 47 46 44 43 43 43 43 40 39 38 38 38 38 38 36 33 30 27 23 22 23 22 22 21 20 21 20 20 21 22 20 19 19 20 20 21 21 20 22
35 34 36 37 38 41 42 42 43 45 45 45 46 46 46 46 47 47 45 48 50 51 51 51 52 52 53 54 54 54 54 54 54 55 54 54 54 53 53 52 52 51 47 45 45 45 45 45 45 43 43 42 42 40 39 38 37 37 35 34 33 32 29 27 25 28 26 25 24 21 20 19 20 22 22 21 20 19 21 21 19 21 22 22 21
37 37 37 38 38 38 38 40 42 43 43 44 44 45 45 45 44 45 45 47 48 48 50 51 51 51 51 52 52 52 53 53 53 53 53 53 53 53 52 51 50 48 45 44 43 44 43 43 42 40 39 39 39 39 39 39 37 36 35 34 33 32 30 29 30 30 29 25 22 20 19 19 19 19 20 20 19 19 21 21 19 24 23 22 21
37 38 38 38 37 36 38 40 41 42 43 44 44 43 43 42 43 42 44 45 46 46 47 48 49 50 50 50 50 50 51 52 47 47 48 52 51 51 50 47 45 45 43 41 39 39 41 40 39 37 37 37 37 38 38 37 37 38 35 33 32 32 30 29 28 26 26 24 22 20 21 21 19 19 19 19 20 21 21 21 21 23 20 20 19
37 38 39 39 37 37 38 39 39 41 43 43 42 41 42 41 41 42 42 42 43 42 44 46 46 48 49 49 48 48 48 48 45 46 46 47 49 49 49 47 44 43 43 42 42 39 37 37 37 36 36 36 37 37 38 37 36 37 35 34 33 32 31 29 27 26 25 24 22 22 20 19 19 19 19 20 21 22 22 22 22 20 19 18 18
36 38 40 39 39 39 39 39 38 40 41 42 41 40 39 39 40 40 40 39 39 39 41 44 44 44 46 45 46 46 46 43 44 45 45 45 45 47 46 45 43 42 41 41 40 38 37 37 37 37 37 37 37 36 36 36 36 36 35 34 34 34 33 30 28 25 26 25 22 21 19 19 19 19 19 22 22 22 23 22 21 20 19 17 16
37 38 40 40 40 40 39 39 39 39 39 40 40 39 39 39 40 40 40 39 37 39 41 41 41 41 43 43 43 42 42 42 43 44 44 44 44 44 42 42 41 40 40 40 39 38 37 37 36 35 35 34 35 35 36 36 35 35 34 34 34 34 34 34 31 26 23 25 23 21 18 17 18 19 21 22 23 22 22 21 21 21 21 18 16
38 39 39 40 40 39 39 39 39 39 38 38 38 39 40 41 40 39 39 37 38 39 38 39 39 39 41 42 41 40 40 40 43 43 42 43 43 43 42 41 40 40 39 39 38 38 38 37 36 35 34 34 34 35 35 35 34 34 32 31 30 30 32 32 30 27 24 23 20 20 17 15 17 19 21 24 23 22 21 21 21 20 19 17 18
38 39 39 39 39 39 39 39 39 39 38 38 38 38 39 39 38 39 39 39 39 40 39 38 38 38 38 38 39 39 39 39 42 42 42 42 43 43 40 39 39 38 38 39 39 38 38 37 37 36 35 34 34 34 34 34 33 32 31 30 28 25 24 24 24 23 21 19 18 17 14 14 18 20 22 24 22 24 23 23 22 21 19 17 16
38 38 39 39 39 39 39 39 39 38 37 37 37 38 38 38 38 37 37 38 37 38 38 38 38 37 37 38 39 39 37 39 40 41 42 42 42 40 39 39 38 38 37 37 37 36 36 36 37 36 35 34 33 34 34 32 32 31 31 30 28 25 25 30 31 29 24 22 21 20 17 22 29 22 24 23 23 23 21 20 19 18 16 14 12
37 38 38 39 39 39 39 39 39 38 37 37 37 37 37 37 37 36 37 37 37 37 38 37 37 38 37 37 39 39 38 38 39 40 41 42 41 38 38 37 37 36 36 35 35 35 35 36 36 36 34 34 33 34 34 32 31 31 30 27 26 25 22 25 31 31 31 31 31 31 31 31 31 30 29 28 25 22 19 17 16 16 14 11 10
36 37 37 38 38 39 39 39 38 37 37 37 37 37 36 36 37 36 38 37 37 37 37 36 36 37 37 37 38 39 38 37 38 40 40 41 39 37 37 37 35 35 34 33 34 34 34 33 34 35 34 33 34 34 34 31 31 30 29 26 24 23 21 22 24 27 31 32 32 32 32 32 31 31 30 29 27 24 19 15 17 16 13 12 10
36 36 37 38 38 38 38 38 38 37 37 37 37 36 36 36 35 35 36 37 37 37 36 37 36 35 36 37 35 37 37 36 37 39 40 40 38 36 36 36 35 34 33 32 32 32 32 32 32 33 33 32 34 34 34 31 31 29 28 26 25 24 23 23 22 21 20 22 22 26 27 29 28 27 28 29 26 24 19 20 17 14 12 12 13
36 37 38 36 36 37 37 37 37 37 36 36 36 36 36 36 35 35 35 36 36 36 35 36 35 36 35 35 35 36 36 35 35 38 39 39 38 36 36 36 35 34 33 32 31 31 31 31 32 34 34 34 34 35 34 32 30 29 28 27 25 24 22 21 19 20 19 20 19 19 20 20 23 25 26 26 24 21 22 19 17 16 14 13 12
36 36 35 34 36 37 37 37 37 36 36 36 36 36 36 36 36 35 35 35 35 35 35 35 35 35 34 34 35 35 35 35 34 37 39 39 38 36 35 36 35 34 33 32 32 32 31 30 30 33 34 34 34 35 35 32 30 28 27 27 25 23 24 21 22 23 18 17 17 17 18 18 20 23 25 24 22 21 20 21 18 18 16 14 13
36 35 34 35 36 36 36 36 36 36 36 36 35 35 35 35 35 35 36 36 35 35 35 35 35 34 34 34 34 34 34 34 35 35 38 38 38 37 35 35 34 34 33 32 32 32 31 30 30 31 33 33 34 35 35 33 31 26 26 27 29 29 24 22 20 19 18 17 16 15 15 17 19 21 23 23 22 21 20 18 19 17 17 17 15
35 34 34 34 35 35 36 36 36 36 36 36 36 35 35 35 35 35 35 35 35 35 34 34 35 34 34 33 33 33 33 33 33 34 36 38 38 37 36 35 36 34 34 33 32 31 29 28 29 30 32 33 34 35 35 34 31 27 28 29 30 29 25 21 20 19 18 17 17 16 16 18 20 21 22 21 20 20 21 19 18 17 16 15 15
34 34 34 34 34 35 35 35 36 36 36 36 36 35 34 35 35 35 35 36 36 35 35 34 34 34 34 33 32 32 32 33 33 33 35 37 38 37 37 36 35 34 33 33 31 30 29 28 28 31 32 33 33 34 35 33 28 29 29 30 30 27 21 21 19 18 18 16 15 16 17 19 20 20 20 20 19 19 19 18 16 16 15 14 13
33 33 33 34 34 34 35 35 35 36 35 36 35 36 35 34 35 35 35 35 36 36 36 35 35 35 35 34 33 32 32 32 32 33 34 35 37 37 36 36 35 34 32 29 29 29 29 29 30 31 32 33 33 34 34 32 30 29 30 31 26 21 20 20 19 18 16 16 16 17 18 18 19 17 18 18 17 16 16 15 14 13 12 12 13
33 33 33 33 34 34 34 35 35 35 35 36 36 36 36 35 36 35 35 36 36 36 36 35 35 35 35 34 33 32 31 31 32 32 33 34 35 35 35 34 33 32 30 29 28 29 30 30 30 31 31 32 31 31 31 31 30 30 30 26 21 20 20 20 19 18 17 17 17 17 18 18 17 17 17 16 15 15 14 13 11 9 10 11 11
33 33 33 33 34 34 34 35 35 35 35 36 36 36 36 36 36 35 35 36 36 36 36 35 35 35 35 34 33 31 31 31 31 32 33 34 34 34 33 32 31 30 28 28 29 29 29 29 29 30 31 31 31 31 32 31 29 29 26 21 20 20 20 20 19 18 18 18 18 18 19 18 16 15 14 14 14 14 13 13 12 12 11 11 10
33 33 33 33 34 34 35 34 35 35 35 35 36 36 36 36 36 36 36 36 36 36 36 36 36 36 35 34 32 31 31 31 31 32 32 33 33 33 32 31 30 28 27 27 28 28 28 29 29 29 30 30 30 30 30 29 27 26 23 20 19 19 20 22 21 16 17 18 19 18 16 15 14 14 14 13 13 13 13 12 12 11 11 10 9
33 33 33 33 34 34 35 35 35 36 35 35 36 36 36 36 36 37 36 36 37 37 37 36 35 35 35 33 32 31 31 31 31 32 32 33 33 32 31 30 29 27 27 28 27 27 27 26 26 27 28 28 28 29 29 28 27 25 23 20 19 19 20 19 18 18 18 18 17 16 15 14 14 13 13 12 13 12 13 12 12 11 11 10 10
33 33 33 33 34 34 35 35 35 36 36 35 35 35 34 35 35 36 36 34 34 35 35 35 35 34 34 34 33 34 33 32 32 33 33 33 33 33 32 31 30 28 29 29 26 24 24 24 24 25 26 27 27 27 27 27 26 25 24 23 20 19 19 19 17 16 16 16 17 16 15 14 13 13 12 12 12 12 12 12 11 12 10 9 9
33 33 33 34 34 34 35 35 35 36 36 35 36 35 34 34 34 34 34 34 34 34 34 35 34 34 35 34 33 33 33 33 33 33 33 33 33 33 32 31 30 30 29 26 23 22 22 22 23 24 25 26 26 27 28 27 26 25 25 24 21 20 20 17 16 16 15 14 13 13 14 13 12 12 11 12 12 12 11 12 12 11 10 10 9
33 33 33 34 34 34 35 35 35 35 35 35 35 35 35 33 32 32 33 33 33 33 34 34 34 34 34 34 33 32 32 33 33 33 33 33 33 32 32 31 31 30 29 26 22 21 21 20 21 21 23 24 24 25 26 27 27 26 25 24 23 22 21 20 18 15 14 14 13 12 10 10 12 12 12 12 12 11 11 11 11 10 10 10 10
33 33 33 33 34 34 34 35 35 35 35 35 35 35 35 34 31 29 30 32 32 33 33 33 33 33 34 33 33 32 32 32 33 32 33 33 32 32 32 31 31 30 28 23 20 19 19 19 19 19 20 20 19 22 24 25 26 26 25 24 24 23 23 22 21 18 16 15 15 14 14 13 13 13 13 12 12 11 11 10 11 10 10 10 10
33 33 33 33 34 34 34 35 35 35 35 35 35 35 35 35 34 33 29 29 31 31 32 32 32 33 33 33 32 32 32 32 32 32 32 32 32 32 31 31 31 30 26 21 20 18 17 16 16 17 17 15 17 19 20 22 24 25 25 24 24 23 22 21 21 19 18 18 16 15 15 14 14 13 12 12 12 12 11 11 10 10 10 10 9
33 31 30 31 34 34 34 35 35 35 35 35 35 35 35 35 34 33 31 30 29 29 29 30 32 32 32 32 32 32 32 32 32 32 32 32 32 32 31 29 29 28 24 18 18 17 16 16 15 15 16 16 16 17 18 19 21 21 22 22 22 21 20 20 20 19 19 18 18 16 15 14 13 13 13 12 12 11 11 11 11 11 10 10 10
33 33 32 32 33 34 34 34 35 35 35 35 35 35 34 34 34 33 32 31 31 30 28 29 29 31 31 31 31 32 32 32 32 32 32 32 32 31 28 27 27 26 22 17 16 15 15 15 15 14 13 12 12 13 14 17 17 18 16 17 17 16 16 15 15 16 16 16 15 14 14 13 14 13 13 13 13 12 12 11 11 10 10 9 8
33 33 33 33 33 34 34 34 34 34 34 34 34 34 34 34 33 33 32 31 30 29 27 24 25 26 27 27 29 31 32 32 32 32 32 32 32 29 27 27 27 26 22 19 17 16 15 12 13 13 13 14 13 14 13 13 13 13 15 14 14 13 14 13 13 12 12 12 11 12 12 12 11 11 11 10 10 10 9 8 8 8 8 9 10
33 33 33 33 33 33 34 34 34 33 34 34 34 34 33 33 32 32 31 31 29 27 25 25 26 26 26 26 28 29 30 31 31 31 31 31 30 27 26 26 26 26 24 22 20 17 16 14 13 14 13 13 12 11 11 11 11 12 13 12 12 14 15 14 13 12 11 11 10 10 11 9 9 10 10 10 10 8 7 7 6 6 5 8 8
33 32 31 32 33 34 34 33 33 34 33 33 33 32 32 31 31 31 30 29 27 26 25 24 25 25 24 25 26 28 29 28 27 27 28 28 27 26 26 26 26 26 25 24 22 21 19 16 14 12 12 12 12 11 13 11 10 11 11 12 12 11 13 11 12 11 10 10 9 8 9 8 6 7 8 8 7 6 6 5 4 4 4 4 5
33 33 32 31 32 33 33 32 32 33 32 32 32 31 30 30 30 29 29 28 27 25 24 24 24 24 23 24 25 26 25 25 25 26 26 26 25 26 25 25 25 24 24 24 24 23 22 20 17 16 15 13 13 12 11 12 12 12 11 12 12 12 13 12 11 10 10 9 8 6 7 7 8 8 6 7 7 6 6 6 5 4 3 2 2
33 32 28 31 31 32 30 31 31 32 31 31 31 30 30 29 29 28 28 27 26 24 24 24 23 21 21 22 25 25 24 23 23 24 24 25 25 25 25 24 24 23 23 22 22 22 22 21 20 19 18 15 14 13 13 13 12 11 11 11 10 10 10 8 8 8 8 8 9 9 9 9 9 9 9 9 10 9 8 7 6 4 5 3 2
32 31 30 30 30 31 30 29 30 29 28 28 29 29 28 27 27 27 26 26 24 23 22 21 20 18 19 23 24 24 22 21 21 22 23 23 24 24 24 23 23 22 22 21 19 18 18 18 17 18 17 16 15 15 14 14 13 13 12 11 11 10 11 11 11 12 12 12 12 12 11 11 10 10 10 11 9 9 8 7 7 6 5 4 3
30 30 29 29 29 29 29 29 28 28 28 28 27 24 25 26 25 24 24 23 22 21 21 19 17 16 19 23 23 21 19 19 18 20 21 22 22 20 20 20 20 20 19 18 19 19 19 18 18 18 18 17 17 17 17 16 15 15 14 14 14 14 14 14 14 13 13 13 12 12 12 11 11 10 10 9 9 8 8 7 6 5 5 4 3
28 27 27 27 27 27 27 27 26 27 27 25 24 24 24 24 23 23 23 21 20 20 19 17 16 17 19 20 19 17 17 18 19 18 18 17 17 16 16 16 16 16 16 16 17 18 18 17 15 13 13 12 13 13 14 14 16 17 16 16 15 15 15 15 14 14 13 12 12 11 11 10 10 10 9 8 8 7 6 6 5 5 4 3 3
27 26 25 25 25 26 25 25 25 25 23 22 23 22 21 23 22 22 21 20 19 18 17 16 16 17 17 17 17 16 16 16 15 15 16 16 14 13 12 12 11 11 10 10 11 12 12 12 10 9 7 6 7 7 7 7 9 10 12 14 15 14 13 12 11 11 11 11 11 10 10 9 9 9 8 8 7 7 6 6 5 4 3 3 2
25 24 24 24 23 23 22 23 21 23 22 23 22 21 21 22 22 21 20 19 18 17 16 16 16 16 15 15 15 14 14 14 14 13 12 11 10 9 8 8 7 7 6 5 6 7 7 7 6 5 4 3 2 2 1 1 2 2 3 4 4 4 1 1 2 4 6 7 8 9 9 8 8 7 7 7 7 6 6 5 5 4 4 3 2
24 23 23 22 22 21 20 20 20 20 21 21 21 20 20 21 20 18 17 17 16 15 15 16 15 14 13 13 13 13 12 12 11 10 9 8 7 6 6 5 5 4 4 4 4 3 3 3 3 3 2 1 0 0 -1 -2 -3 -3 -2 -3 -4 -5 -7 -6 -5 -5 -3 -0 3 4 6 6 7 5 7 6 6 6 5 5 4 3 3 3 2
23 22 21 20 20 19 18 19 18 16 19 19 19 18 18 17 16 15 15 14 14 13 14 14 13 12 11 11 11 11 10 9 8 7 6 6 6 5 5 4 3 2 2 2 1 1 1 1 1 1 0 0 -0 -1 -2 -3 -4 -5 -7 -7 -9 -11 -8 -6 -11 -11 -12 -10 -7 -4 -1 2 4 5 5 5 4 3 3 3 3 3 3 2 2
21 20 20 19 18 18 17 18 17 18 18 17 16 15 14 14 13 13 12 12 12 12 12 12 11 10 10 9 9 8 7 7 6 5 5 5 4 4 3 3 3 2 1 1 0 -0 -0 -1 -1 -1 -2 -2 -3 -3 -3 -3 -4 -5 -7 -11 -8 1 1 1 -5 -9 -5 -6 -8 -9 -7 -5 -1 3 5 4 4 2 2 1 1 2 1 1 1
19 18 18 18 17 17 17 17 17 16 15 14 14 14 13 12 12 11 11 11 11 10 10 10 9 9 8 7 7 6 6 5 4 4 3 3 2 2 2 2 1 1 0 -1 -1 -2 -2 -3 -3 -3 -4 -4 -5 -5 -5 -5 -6 -7 -11 -10 1 2 2 2 2 2 -2 -6 -6 -7 -6 -5 -3 1 3 4 3 2 2 1 0 1 1 0 0
16 16 16 16 16 16 15 15 15 14 14 13 13 12 11 11 11 10 10 10 9 9 8 8 8 7 7 7 6 6 5 4 3 2 2 1 1 1 1 0 -0 -1 -1 -2 -2 -3 -3 -3 -4 -5 -4 -4 -5 -6 -6 -7 -9 -10 -4 2 2 1 1 1 -3 -3 -1 -2 -5 -3 -1 -1 -0 0 1 1 2 2 2 1 -1 -2 -2 -2 -2